Terug naar catalogus

FENGYUN 1C DEB

ActiefPO
NORAD 32361·DEBRIS·🇨🇳 China

Gelanceerd May 10, 1999 vanaf Taiyuan Satellite Launch Center

Loading…

Volgende Passages (komende 24 uur)

TLE

VerouderendSource: Space-Track

Epoch: Sep 11, 2026, 03:59 UTC

1 32361U 99025CZE 26254.16599691  .00003767  00000-0  88122-3 0  9992
2 32361  98.8432 333.1502 0041795 297.8633  61.8331 14.54750361  2990

Volg FENGYUN 1C DEB in realtime met AllMySat

Download on the App Store